Flag for Germany Weather past 2 weeks in Langenfeld (Rheinland), North Rhine-Westphalia, Germany

Now
54 °F

Fog.


Feels Like: 53 °F
Forecast: 49 / 67 °F
Wind: 3 mph from Southwest

Location: Duesseldorf

Current Time: Sep 1, 2014 at 10:27:13 AM

Latest Report: Sep 1, 2014 at 9:50 AM


Visibility: 1 mi

Pressure: 30.12 "Hg

Humidity: 100%

Dew point: 54 °F

Location of Langenfeld (Rheinland)Location

Historic Weather in Langenfeld (Rheinland) — Graph

°F

Langenfeld (Rheinland) temperature yesterday

Maximum temperature yesterday: 63 °F (at 12:20 PM)
Minimum temperature yesterday: 55 °F (at 2:50 AM)
Average temperature yesterday: 58 °F

Past Weeks' High & Low Weather Summary

 TemperatureHumidityPressure
High73 °F (Aug 28, 2:20 PM)100% (Aug 26, 8:20 AM)30.12 "Hg (Aug 26, 8:20 AM)
Low46 °F (Aug 20, 2:50 AM)40% (Aug 27, 4:20 PM)29.62 "Hg (Aug 26, 4:50 AM)
Average58 °F78%29.93 "Hg
* Reported Aug 17 9:20 AM — Sep 1 9:20 AM, Langenfeld (Rheinland), Weather by CustomWeather, © 2014

Note: Actual official high and low records may vary slightly from our data, if they occured in-between our weather recording intervals... More about our weather records

Advertising

Langenfeld (Rheinland) weather history for previous 24 hours

 ConditionsComfort  
Time TempWeatherWind HumidityBarometerVisibility
9:20 AM
Sep 1
54 °FFog.5 mph100%30.12 "Hg1 mi
8:50 AM54 °FFog.3 mph100%30.12 "Hg1 mi
8:20 AM54 °FFog.3 mph100%30.12 "Hg0 mi
7:50 AM54 °FFog.5 mph100%30.12 "Hg0 mi
7:20 AM54 °FFog.5 mph100%30.12 "Hg0 mi
6:50 AM54 °FFog.5 mph100%30.12 "Hg1 mi
6:20 AM54 °FFog.5 mph100%30.12 "Hg1 mi
5:50 AM54 °FFog.5 mph100%30.12 "Hg1 mi
5:20 AM52 °FFog.3 mph100%30.09 "Hg1 mi
4:50 AM50 °FFog.2 mph100%30.09 "Hg2 mi
4:20 AM48 °FCool.2 mph100%30.09 "Hg1 mi
3:50 AM48 °FFog.2 mph94%30.09 "Hg0 mi
3:20 AM48 °FCool.3 mph94%30.07 "Hg1 mi
2:50 AM48 °FCool.1 mph94%30.07 "Hg4 mi
2:20 AM50 °FCool.2 mph94%30.07 "Hg6 mi
1:50 AM50 °FFog.2 mph100%30.07 "HgN/A
1:20 AM50 °FFog.1 mph94%30.07 "HgN/A
12:50 AM52 °FFog.2 mph88%30.07 "HgN/A
12:20 AM54 °FFog.3 mph94%30.07 "HgN/A
11:50 PM
Aug 31
55 °FClear.2 mph88%30.04 "Hg10 mi
11:20 PM55 °FClear.5 mph88%30.04 "Hg10 mi
10:50 PM55 °FClear.6 mph94%30.04 "Hg10 mi
10:20 PM55 °FClear.6 mph94%30.04 "Hg10 mi
9:50 PM57 °FPassing clouds.5 mph88%30.01 "HgN/A
9:20 PM57 °FScattered clouds.5 mph94%30.01 "HgN/A
8:50 PM59 °FBroken clouds.6 mph88%30.01 "HgN/A
8:20 PM59 °FScattered clouds.6 mph88%29.98 "HgN/A
7:50 PM59 °FPartly sunny.6 mph88%29.98 "HgN/A
7:20 PM59 °FSprinkles. Partly sunny.6 mph88%29.98 "HgN/A
6:50 PM59 °FPartly sunny.6 mph88%29.98 "HgN/A
6:20 PM59 °FPartly sunny.6 mph88%29.98 "HgN/A
5:50 PM57 °FSprinkles. Partly sunny.7 mph94%29.98 "HgN/A
5:20 PM57 °FScattered showers. Partly sunny.6 mph94%29.98 "HgN/A
4:50 PM57 °FSprinkles. Broken clouds.7 mph88%29.95 "HgN/A
4:20 PM59 °FSprinkles. Broken clouds.6 mph88%29.95 "HgN/A
3:50 PM61 °FLots of rain. Partly sunny.9 mph77%29.95 "Hg5 mi
3:20 PM61 °FSprinkles. Scattered clouds.5 mph72%29.95 "HgN/A
2:50 PM61 °FCool.7 mph77%29.95 "HgN/A
2:20 PM61 °FThunderstorms. Broken clouds.8 mph83%29.95 "HgN/A
1:50 PM63 °FScattered showers. Scattered clouds.3 mph83%29.95 "HgN/A
1:20 PM63 °FSprinkles. Scattered clouds.6 mph83%29.95 "HgN/A
12:50 PM63 °FScattered clouds.8 mph77%29.95 "HgN/A
12:20 PM63 °FPartly sunny.7 mph83%29.95 "HgN/A
11:50 AM61 °FPartly sunny.7 mph88%29.95 "Hg5 mi
11:20 AM59 °FPartly sunny.6 mph94%29.95 "Hg4 mi
10:50 AM59 °FBroken clouds.6 mph94%29.95 "Hg4 mi
10:20 AM59 °FBroken clouds.6 mph88%29.95 "Hg4 mi
Weather by CustomWeather, © 2014

See weather overviewHow to use our weather pages